Location: Sofia
(42.6977°N, 23.3219°E)
Time: 17:21:45
(UTC+02:00)

Hubble Space Telescope - Pass Details

Date: 21 September 2023
Orbit: 518 x 522 km, 28.5° (Epoch: 06 December)

Event Time Altitude Azimuth Distance (km) Brightness Sun altitude
Exits shadow 04:44:23 - 141° (SE) 2,200 4.0 -26.8°
Enters shadow 05:43:46 -67° 279° (W) 12,323 7.6 -16.8°
Maximum altitude 06:22:14 11° 177° (S) 1,716 3.3 -10.0°
